{"data":{"norad_id":58540,"intl_designator":"2023-192K","name":"STARLINK-31019","alt_names":[],"object_type":"PAYLOAD","status":"ACTIVE","operator":null,"country":"US","launch_date":"2023-12-08","launch_site_code":"AFWTR","launch_vehicle":null,"mission":null,"orbit_class":"UNKNOWN","rcs_meters":null,"size_class":null,"mass_kg":null,"dimensions":null,"purposes":["comms"],"wikipedia_slug":null,"has_3d_model":false,"image_url":null,"decayed_at":null,"tle_current":{"epoch":"2026-09-20T08:08:31.254432Z","epoch_age_seconds":160682,"freshness":"FRESH","line1":"1 58540U 23192K   26263.33925063  .00008050  00000+0  24953-3 0  9997","line2":"2 58540  53.1568 234.6028 0001836 100.1325 259.9885 15.34349599155848","mean_motion":15.34349599,"eccentricity":0.0001836,"inclination_deg":53.1568,"raan_deg":234.6028,"arg_perigee_deg":100.1325,"mean_anomaly_deg":259.9885,"bstar":0.00024953,"rev_number":15584,"period_min":93.850840834351,"perigee_km":461.59704092869,"apogee_km":464.10905247384,"semimajor_km":6840.9900467013,"source":"CELESTRAK","updated_at":"2026-09-21T09:00:33.913751Z"}}}